Regional Weather Roundup
Issued by NWS

Home | Current Version | Previous Version | Text Only | Print | Product List | Glossary On
Versions: 1 2 3 4 5 6 7 8 9 10 11 12 13 14 15 16 17 18 19 20 21 22 23 24 25 26 27 28 29 30 31 32 33 34 35 36 37 38 39 40 41 42 43 44 45 46 47 48 49 50
000
ASUS43 KBIS 210331
RWRND
NORTH DAKOTA REGIONAL WEATHER ROUNDUP
NATIONAL WEATHER SERVICE EASTERN NORTH DAKOTA/GRAND FORKS ND
1000 PM CDT FRI APR 20 2018

  NOTE: "FAIR" INDICATES FEW OR NO CLOUDS BELOW 12,000 FEET WITH NO
  SIGNIFICANT WEATHER AND/OR OBSTRUCTIONS TO VISIBILITY.

NDZ001>003-009>011-017-210400-
...NORTHWEST NORTH DAKOTA...

CITY           SKY/WX    TMP DP  RH WIND       PRES   REMARKS
WILLISTON      FAIR      51  31  46 SE6       30.14R
MINOT          FAIR      45  37  73 SE8       30.22R
MINOT AFB      FAIR      41  37  85 SE12      30.20R
$$

NDZ018>021-031>035-040>046-210400-
...SOUTHWEST NORTH DAKOTA...

CITY           SKY/WX    TMP DP  RH WIND       PRES   REMARKS
BISMARCK       FAIR      47  33  58 S9        30.30R
DICKINSON      FAIR      45  37  73 S13       30.19R
GARRISON         N/A     43  31  62 S12       30.24R
HETTINGER      MOCLDY    43  36  76 S18       30.23R
$$

NDZ004>008-012>016-024-026-027-054-210400-
...NORTHEAST NORTH DAKOTA...

CITY           SKY/WX    TMP DP  RH WIND       PRES   REMARKS
GRAND FORKS    FAIR      44  34  67 SE7       30.35S
GRAND FORKS AF FAIR      43  32  65 S7        30.35R
DEVILS LAKE    FAIR      38  31  76 SE8       30.32R WCI  32
$$

NDZ022-023-025-028>030-036>039-047>053-210400-
...SOUTHEAST NORTH DAKOTA...

CITY           SKY/WX    TMP DP  RH WIND       PRES   REMARKS
JAMESTOWN      FAIR      42  36  79 S6        30.33R
FARGO          FAIR      47  39  74 S14       30.37R
WAHPETON       FAIR      39  34  81 SE8       30.40S WCI  34
$$




USA.gov is the U.S. government's official web portal to all federal, state and local government web resources and services.